Time,TemperatureF,DewpointF,PressureIn,WindDirection,WindDirectionDegrees,WindSpeedMPH,WindSpeedGustMPH,Humidity,HourlyPrecipIn,Conditions,Clouds,dailyrainin,SoftwareType,DateUTC
2013-06-08 00:00:00,59.0,51.1,29.88,ENE,75,0.0,4.0,75,0.00,,OVC120,0.00,VWS V14.00,2013-06-08 04:00:00,
2013-06-08 00:01:00,57.3,51.2,29.89,ENE,75,0.0,0.0,80,0.00,,FEW060,0.00,VWS V14.00,2013-06-08 04:01:00,
2013-06-08 00:02:00,57.3,51.2,29.89,ENE,75,0.0,0.0,80,0.00,,FEW060,0.00,VWS V14.00,2013-06-08 04:02:00,
2013-06-08 00:03:00,57.3,51.2,29.89,ENE,75,0.0,0.0,80,0.00,,FEW060,0.00,VWS V14.00,2013-06-08 04:03:00,
2013-06-08 00:08:00,57.3,51.5,29.89,ENE,75,0.0,0.0,81,0.00,,FEW060,0.00,VWS V14.00,2013-06-08 04:08:00,
2013-06-08 00:14:00,57.3,51.9,29.89,ENE,75,0.0,0.0,82,0.00,,FEW060,0.00,VWS V14.00,2013-06-08 04:14:00,
2013-06-08 00:19:00,57.3,51.9,29.89,ENE,75,0.0,0.0,82,0.00,,FEW060,0.00,VWS V14.00,2013-06-08 04:19:00,
2013-06-08 00:24:00,57.3,51.9,29.89,ENE,75,0.0,0.0,82,0.00,,FEW060,0.00,VWS V14.00,2013-06-08 04:24:00,
2013-06-08 00:29:00,57.3,51.9,29.89,ENE,75,0.0,0.0,82,0.00,,FEW060,0.00,VWS V14.00,2013-06-08 04:29:00,
2013-06-08 00:30:00,58.3,51.1,29.89,ENE,75,0.0,4.0,77,0.00,,OVC120,0.00,VWS V14.00,2013-06-08 04:30:00,
2013-06-08 00:34:00,57.3,51.9,29.89,ENE,75,0.0,0.0,82,0.00,,FEW060,0.00,VWS V14.00,2013-06-08 04:34:00,
2013-06-08 00:39:00,57.4,52.0,29.89,ENE,75,0.0,1.0,82,0.00,,FEW060,0.00,VWS V14.00,2013-06-08 04:39:00,
2013-06-08 00:44:00,57.4,52.0,29.89,ENE,75,0.0,1.0,82,0.00,,FEW060,0.00,VWS V14.00,2013-06-08 04:44:00,
2013-06-08 00:49:00,57.4,51.6,29.89,ENE,75,0.0,1.0,81,0.00,,FEW060,0.00,VWS V14.00,2013-06-08 04:49:00,
2013-06-08 00:54:00,57.3,51.5,29.89,ENE,75,0.0,1.0,81,0.00,,FEW060,0.00,VWS V14.00,2013-06-08 04:54:00,
2013-06-08 00:59:00,57.3,51.9,29.89,ENE,75,0.0,1.0,82,0.00,,FEW060,0.00,VWS V14.00,2013-06-08 04:59:00,
2013-06-08 01:00:00,57.4,51.3,29.89,ENE,75,0.0,1.0,80,0.00,,OVC120,0.00,VWS V14.00,2013-06-08 05:00:00,
2013-06-08 01:04:00,57.2,51.8,29.89,ENE,75,0.0,1.0,82,0.00,,CLR,0.00,VWS V14.00,2013-06-08 05:04:00,
2013-06-08 01:09:00,57.0,51.9,29.89,ENE,75,0.0,2.0,83,0.00,,CLR,0.00,VWS V14.00,2013-06-08 05:09:00,
2013-06-08 01:14:00,56.9,51.8,29.88,ENE,75,0.0,2.0,83,0.00,,CLR,0.00,VWS V14.00,2013-06-08 05:14:00,
2013-06-08 01:19:00,56.9,52.1,29.88,ENE,75,0.0,3.0,84,0.00,,CLR,0.00,VWS V14.00,2013-06-08 05:19:00,
2013-06-08 01:24:00,57.0,52.2,29.88,ENE,75,0.0,3.0,84,0.00,,CLR,0.00,VWS V14.00,2013-06-08 05:24:00,
2013-06-08 01:29:00,57.1,52.0,29.88,ENE,75,0.0,3.0,83,0.00,,CLR,0.00,VWS V14.00,2013-06-08 05:29:00,
2013-06-08 01:30:00,57.3,51.9,29.89,ENE,75,0.0,0.0,82,0.00,,OVC120,0.00,VWS V14.00,2013-06-08 05:30:00,
2013-06-08 01:34:00,57.2,52.1,29.88,ENE,75,0.0,0.0,83,0.00,,CLR,0.00,VWS V14.00,2013-06-08 05:34:00,
2013-06-08 01:39:00,57.1,52.0,29.88,ENE,75,0.0,3.0,83,0.00,,CLR,0.00,VWS V14.00,2013-06-08 05:39:00,
2013-06-08 01:45:00,57.1,52.0,29.88,ENE,75,0.0,3.0,83,0.00,,CLR,0.00,VWS V14.00,2013-06-08 05:45:00,
2013-06-08 01:50:00,56.9,51.8,29.88,ENE,75,0.0,3.0,83,0.00,,CLR,0.00,VWS V14.00,2013-06-08 05:50:00,
2013-06-08 01:55:00,56.7,51.9,29.88,ENE,75,0.0,3.0,84,0.00,,CLR,0.00,VWS V14.00,2013-06-08 05:55:00,
2013-06-08 02:00:00,56.4,51.6,29.88,ENE,75,0.0,0.0,84,0.00,,CLR,0.00,VWS V14.00,2013-06-08 06:00:00,
2013-06-08 02:05:00,56.2,51.4,29.88,ENE,75,0.0,1.0,84,0.00,,CLR,0.00,VWS V14.00,2013-06-08 06:05:00,
2013-06-08 02:10:00,56.0,51.6,29.88,ENE,75,0.0,1.0,85,0.00,,CLR,0.00,VWS V14.00,2013-06-08 06:10:00,
2013-06-08 02:15:00,55.8,51.4,29.88,ENE,75,0.0,1.0,85,0.00,,CLR,0.00,VWS V14.00,2013-06-08 06:15:00,
2013-06-08 02:20:00,55.5,51.1,29.87,ENE,75,0.0,1.0,85,0.00,,CLR,0.00,VWS V14.00,2013-06-08 06:20:00,
2013-06-08 02:25:00,55.2,51.1,29.87,ENE,75,0.0,1.0,86,0.00,,CLR,0.00,VWS V14.00,2013-06-08 06:25:00,
2013-06-08 02:30:00,55.1,51.0,29.87,ENE,75,0.0,0.0,86,0.00,,CLR,0.00,VWS V14.00,2013-06-08 06:30:00,
2013-06-08 02:35:00,54.8,51.0,29.87,ENE,75,0.0,0.0,87,0.00,,CLR,0.00,VWS V14.00,2013-06-08 06:35:00,
2013-06-08 02:40:00,54.5,50.7,29.87,ENE,75,0.0,0.0,87,0.00,,CLR,0.00,VWS V14.00,2013-06-08 06:40:00,
2013-06-08 02:45:00,54.1,50.6,29.87,ENE,75,0.0,0.0,88,0.00,,CLR,0.00,VWS V14.00,2013-06-08 06:45:00,
2013-06-08 02:50:00,53.6,50.1,29.87,ENE,75,0.0,0.0,88,0.00,,CLR,0.00,VWS V14.00,2013-06-08 06:50:00,
2013-06-08 02:55:00,53.1,50.0,29.88,ENE,75,0.0,0.0,89,0.00,,CLR,0.00,VWS V14.00,2013-06-08 06:55:00,
2013-06-08 03:00:00,52.7,49.8,29.88,ENE,75,0.0,0.0,90,0.00,,BKN065,0.00,VWS V14.00,2013-06-08 07:00:00,
2013-06-08 03:05:00,52.3,49.5,29.88,ENE,75,0.0,0.0,90,0.00,,BKN065,0.00,VWS V14.00,2013-06-08 07:05:00,
2013-06-08 03:10:00,52.2,49.7,29.88,ENE,75,0.0,0.0,91,0.00,,BKN065,0.00,VWS V14.00,2013-06-08 07:10:00,
2013-06-08 03:15:00,52.0,49.5,29.88,ENE,75,0.0,0.0,91,0.00,,BKN065,0.00,VWS V14.00,2013-06-08 07:15:00,
2013-06-08 03:20:00,51.9,49.7,29.88,ENE,75,0.0,0.0,92,0.00,,BKN065,0.00,VWS V14.00,2013-06-08 07:20:00,
2013-06-08 03:25:00,51.7,49.5,29.88,ENE,75,0.0,0.0,92,0.00,,BKN065,0.00,VWS V14.00,2013-06-08 07:25:00,
2013-06-08 03:30:00,51.5,49.5,29.88,ENE,75,0.0,0.0,93,0.00,,BKN065,0.00,VWS V14.00,2013-06-08 07:30:00,
2013-06-08 03:36:00,51.2,49.2,29.88,ENE,75,0.0,0.0,93,0.00,,BKN065,0.00,VWS V14.00,2013-06-08 07:36:00,
2013-06-08 03:41:00,50.9,49.0,29.88,ENE,75,0.0,0.0,93,0.00,,BKN065,0.00,VWS V14.00,2013-06-08 07:41:00,
2013-06-08 03:46:00,50.6,48.7,29.88,ENE,75,0.0,0.0,93,0.00,,BKN065,0.00,VWS V14.00,2013-06-08 07:46:00,
2013-06-08 03:51:00,50.4,48.7,29.88,ENE,75,0.0,0.0,94,0.00,,BKN065,0.00,VWS V14.00,2013-06-08 07:51:00,
2013-06-08 03:56:00,50.1,48.4,29.88,ENE,75,0.0,0.0,94,0.00,,BKN065,0.00,VWS V14.00,2013-06-08 07:56:00,
2013-06-08 04:00:00,52.7,49.6,29.88,ENE,75,0.0,0.0,89,0.00,,OVC120,0.00,VWS V14.00,2013-06-08 08:00:00,
2013-06-08 04:01:00,49.8,48.2,29.88,ENE,75,0.0,0.0,94,0.00,,CLR,0.00,VWS V14.00,2013-06-08 08:01:00,
2013-06-08 04:06:00,49.6,48.0,29.88,ENE,75,0.0,0.0,94,0.00,,CLR,0.00,VWS V14.00,2013-06-08 08:06:00,
2013-06-08 04:11:00,49.7,48.3,29.88,ENE,75,0.0,0.0,95,0.00,,CLR,0.00,VWS V14.00,2013-06-08 08:11:00,
2013-06-08 04:16:00,50.0,48.6,29.88,ENE,75,0.0,0.0,95,0.00,,CLR,0.00,VWS V14.00,2013-06-08 08:16:00,
2013-06-08 04:21:00,50.0,48.6,29.88,ENE,75,0.0,0.0,95,0.00,,CLR,0.00,VWS V14.00,2013-06-08 08:21:00,
2013-06-08 04:26:00,50.1,48.7,29.88,ENE,75,0.0,0.0,95,0.00,,CLR,0.00,VWS V14.00,2013-06-08 08:26:00,
2013-06-08 04:30:00,51.5,49.5,29.88,ENE,75,0.0,0.0,93,0.00,,OVC120,0.00,VWS V14.00,2013-06-08 08:30:00,
2013-06-08 04:31:00,50.1,48.7,29.88,ENE,75,0.0,0.0,95,0.00,,CLR,0.00,VWS V14.00,2013-06-08 08:31:00,
2013-06-08 04:37:00,50.0,48.6,29.88,ENE,75,0.0,0.0,95,0.00,,CLR,0.00,VWS V14.00,2013-06-08 08:37:00,
2013-06-08 04:42:00,50.0,48.9,29.88,ENE,75,0.0,0.0,96,0.00,,CLR,0.00,VWS V14.00,2013-06-08 08:42:00,
2013-06-08 04:47:00,50.0,48.9,29.88,ENE,75,0.0,0.0,96,0.00,,CLR,0.00,VWS V14.00,2013-06-08 08:47:00,
2013-06-08 04:52:00,49.9,48.8,29.88,ENE,75,0.0,0.0,96,0.00,,CLR,0.00,VWS V14.00,2013-06-08 08:52:00,
2013-06-08 04:57:00,49.6,48.5,29.88,ENE,75,0.0,0.0,96,0.00,,CLR,0.00,VWS V14.00,2013-06-08 08:57:00,
2013-06-08 05:00:00,49.9,48.2,29.88,ENE,75,0.0,0.0,94,0.00,,OVC120,0.00,VWS V14.00,2013-06-08 09:00:00,
2013-06-08 05:02:00,49.2,48.1,29.89,ENE,75,0.0,0.0,96,0.00,,CLR,0.00,VWS V14.00,2013-06-08 09:02:00,
2013-06-08 05:07:00,48.9,47.8,29.89,ENE,75,0.0,0.0,96,0.00,,CLR,0.00,VWS V14.00,2013-06-08 09:07:00,
2013-06-08 05:12:00,48.7,47.6,29.89,ENE,75,0.0,0.0,96,0.00,,CLR,0.00,VWS V14.00,2013-06-08 09:12:00,
2013-06-08 05:17:00,48.5,47.4,29.89,ENE,75,0.0,0.0,96,0.00,,CLR,0.00,VWS V14.00,2013-06-08 09:17:00,
2013-06-08 05:22:00,48.3,47.2,29.89,ENE,75,0.0,0.0,96,0.00,,CLR,0.00,VWS V14.00,2013-06-08 09:22:00,
2013-06-08 05:27:00,48.1,47.0,29.89,ENE,75,0.0,0.0,96,0.00,,CLR,0.00,VWS V14.00,2013-06-08 09:27:00,
2013-06-08 05:30:00,50.1,48.7,29.88,ENE,75,0.0,0.0,95,0.00,,OVC120,0.00,VWS V14.00,2013-06-08 09:30:00,
2013-06-08 05:32:00,47.8,46.7,29.90,ENE,75,0.0,0.0,96,0.00,,CLR,0.00,VWS V14.00,2013-06-08 09:32:00,
2013-06-08 05:37:00,47.7,46.6,29.90,ENE,75,0.0,0.0,96,0.00,,CLR,0.00,VWS V14.00,2013-06-08 09:37:00,
2013-06-08 05:42:00,47.6,46.5,29.90,ENE,75,0.0,0.0,96,0.00,,CLR,0.00,VWS V14.00,2013-06-08 09:42:00,
2013-06-08 05:47:00,47.8,47.0,29.90,ENE,75,0.0,0.0,97,0.00,,CLR,0.00,VWS V14.00,2013-06-08 09:47:00,
2013-06-08 05:52:00,47.8,47.0,29.90,ENE,75,0.0,0.0,97,0.00,,CLR,0.00,VWS V14.00,2013-06-08 09:52:00,
2013-06-08 05:58:00,47.8,47.0,29.90,ENE,75,0.0,0.0,97,0.00,,CLR,0.00,VWS V14.00,2013-06-08 09:58:00,
2013-06-08 06:00:00,49.3,48.2,29.88,ENE,75,0.0,0.0,96,0.00,,OVC120,0.00,VWS V14.00,2013-06-08 10:00:00,
2013-06-08 06:03:00,47.9,47.1,29.90,ENE,75,0.0,0.0,97,0.00,,CLR,0.00,VWS V14.00,2013-06-08 10:03:00,
2013-06-08 06:08:00,48.1,47.3,29.90,ENE,75,0.0,0.0,97,0.00,,CLR,0.00,VWS V14.00,2013-06-08 10:08:00,
2013-06-08 06:13:00,48.1,47.3,29.90,ENE,75,0.0,0.0,97,0.00,,CLR,0.00,VWS V14.00,2013-06-08 10:13:00,
2013-06-08 06:18:00,48.1,47.3,29.91,ENE,75,0.0,0.0,97,0.00,,CLR,0.00,VWS V14.00,2013-06-08 10:18:00,
2013-06-08 06:23:00,48.2,47.4,29.91,ENE,75,0.0,0.0,97,0.00,,CLR,0.00,VWS V14.00,2013-06-08 10:23:00,
2013-06-08 06:28:00,48.2,47.4,29.91,ENE,75,0.0,0.0,97,0.00,,CLR,0.00,VWS V14.00,2013-06-08 10:28:00,
2013-06-08 06:30:00,47.9,46.8,29.90,ENE,75,0.0,0.0,96,0.00,,OVC120,0.00,VWS V14.00,2013-06-08 10:30:00,
2013-06-08 06:33:00,48.1,47.3,29.91,ENE,75,0.0,0.0,97,0.00,,CLR,0.00,VWS V14.00,2013-06-08 10:33:00,
2013-06-08 06:38:00,48.1,47.3,29.91,ENE,75,0.0,0.0,97,0.00,,CLR,0.00,VWS V14.00,2013-06-08 10:38:00,
2013-06-08 06:43:00,48.1,47.3,29.91,ENE,75,0.0,0.0,97,0.00,,CLR,0.00,VWS V14.00,2013-06-08 10:43:00,
2013-06-08 06:48:00,48.1,47.3,29.92,ENE,75,0.0,0.0,97,0.00,,CLR,0.00,VWS V14.00,2013-06-08 10:48:00,
2013-06-08 06:53:00,48.1,47.3,29.92,ENE,75,0.0,0.0,97,0.00,,CLR,0.00,VWS V14.00,2013-06-08 10:53:00,
2013-06-08 06:58:00,48.2,47.4,29.92,ENE,75,0.0,0.0,97,0.00,,CLR,0.00,VWS V14.00,2013-06-08 10:58:00,
2013-06-08 07:00:00,47.8,47.0,29.90,ENE,75,0.0,0.0,97,0.00,,OVC120,0.00,VWS V14.00,2013-06-08 11:00:00,
2013-06-08 07:03:00,48.6,48.1,29.92,ENE,75,0.0,0.0,98,0.00,,SCT200,0.00,VWS V14.00,2013-06-08 11:03:00,
2013-06-08 07:08:00,49.6,49.1,29.92,ENE,75,0.0,0.0,98,0.00,,SCT200,0.00,VWS V14.00,2013-06-08 11:08:00,
2013-06-08 07:14:00,50.5,50.0,29.92,ENE,75,0.0,0.0,98,0.00,,SCT200,0.00,VWS V14.00,2013-06-08 11:14:00,
2013-06-08 07:19:00,51.4,50.9,29.92,ENE,75,0.0,1.0,98,0.00,,SCT200,0.00,VWS V14.00,2013-06-08 11:19:00,
2013-06-08 07:24:00,52.2,51.7,29.92,ENE,75,0.0,1.0,98,0.00,,SCT200,0.00,VWS V14.00,2013-06-08 11:24:00,
2013-06-08 07:29:00,52.7,52.2,29.92,ENE,75,0.0,1.0,98,0.00,,SCT200,0.00,VWS V14.00,2013-06-08 11:29:00,
2013-06-08 07:30:00,48.2,47.4,29.91,ENE,75,0.0,0.0,97,0.00,,OVC120,0.00,VWS V14.00,2013-06-08 11:30:00,
2013-06-08 07:34:00,53.1,52.5,29.92,ENE,75,0.0,2.0,98,0.00,,SCT200,0.00,VWS V14.00,2013-06-08 11:34:00,
2013-06-08 07:39:00,53.5,53.0,29.92,ENE,75,1.0,2.0,98,0.00,,SCT200,0.00,VWS V14.00,2013-06-08 11:39:00,
2013-06-08 07:44:00,53.9,53.3,29.92,ENE,75,0.0,2.0,98,0.00,,SCT200,0.00,VWS V14.00,2013-06-08 11:44:00,
2013-06-08 07:49:00,54.4,53.8,29.92,ENE,75,0.0,2.0,98,0.00,,SCT200,0.00,VWS V14.00,2013-06-08 11:49:00,
2013-06-08 07:54:00,54.9,54.3,29.93,ENE,75,0.0,2.0,98,0.00,,SCT200,0.00,VWS V14.00,2013-06-08 11:54:00,
2013-06-08 07:59:00,55.5,54.7,29.93,ENE,75,0.0,2.0,97,0.00,,SCT200,0.00,VWS V14.00,2013-06-08 11:59:00,
2013-06-08 08:00:00,48.3,47.5,29.92,ENE,75,0.0,0.0,97,0.00,,OVC120,0.00,VWS V14.00,2013-06-08 12:00:00,
2013-06-08 08:04:00,55.8,55.0,29.93,ENE,75,2.0,3.0,97,0.00,,FEW200,0.00,VWS V14.00,2013-06-08 12:04:00,
2013-06-08 08:09:00,56.1,54.7,29.93,East,79,0.0,3.0,95,0.00,,FEW200,0.00,VWS V14.00,2013-06-08 12:09:00,
2013-06-08 08:14:00,56.7,55.0,29.93,East,79,0.0,3.0,94,0.00,,FEW200,0.00,VWS V14.00,2013-06-08 12:14:00,
2013-06-08 08:19:00,57.2,54.6,29.93,SSE,167,1.0,5.0,91,0.00,,FEW200,0.00,VWS V14.00,2013-06-08 12:19:00,
2013-06-08 08:25:00,57.4,54.5,29.93,SSE,165,3.0,5.0,90,0.00,,FEW200,0.00,VWS V14.00,2013-06-08 12:25:00,
2013-06-08 08:30:00,57.5,54.0,29.94,South,175,2.0,5.0,88,0.00,,FEW200,0.00,VWS V14.00,2013-06-08 12:30:00,
2013-06-08 08:35:00,57.8,54.3,29.94,South,175,2.0,3.0,88,0.00,,FEW200,0.00,VWS V14.00,2013-06-08 12:35:00,
2013-06-08 08:40:00,58.3,54.8,29.94,SSW,195,5.0,6.0,88,0.00,,FEW200,0.00,VWS V14.00,2013-06-08 12:40:00,
2013-06-08 08:45:00,58.3,54.1,29.94,South,188,4.0,8.0,86,0.00,,FEW200,0.00,VWS V14.00,2013-06-08 12:45:00,
2013-06-08 08:50:00,58.6,54.4,29.95,SSW,198,6.0,8.0,86,0.00,,FEW200,0.00,VWS V14.00,2013-06-08 12:50:00,
2013-06-08 08:55:00,58.7,54.5,29.95,South,190,0.0,8.0,86,0.00,,FEW200,0.00,VWS V14.00,2013-06-08 12:55:00,
2013-06-08 09:00:00,59.0,54.8,29.95,SSW,194,3.0,6.0,86,0.00,,FEW200,0.00,VWS V14.00,2013-06-08 13:00:00,
2013-06-08 09:05:00,59.0,54.2,29.95,SE,146,2.0,7.0,84,0.00,,FEW200,0.00,VWS V14.00,2013-06-08 13:05:00,
2013-06-08 09:10:00,59.6,55.1,29.95,South,171,2.0,7.0,85,0.00,,FEW200,0.00,VWS V14.00,2013-06-08 13:10:00,
2013-06-08 09:15:00,60.3,55.8,29.95,South,183,0.0,7.0,85,0.00,,FEW200,0.00,VWS V14.00,2013-06-08 13:15:00,
2013-06-08 09:20:00,60.7,55.2,29.95,SSW,205,6.0,7.0,82,0.00,,FEW200,0.00,VWS V14.00,2013-06-08 13:20:00,
2013-06-08 09:26:00,60.6,54.8,29.95,SSW,199,3.0,8.0,81,0.00,,FEW200,0.00,VWS V14.00,2013-06-08 13:26:00,
2013-06-08 09:30:00,57.5,54.0,29.94,South,175,1.0,5.0,88,0.00,,OVC120,0.00,VWS V14.00,2013-06-08 13:30:00,
2013-06-08 09:31:00,60.7,54.8,29.95,SSW,192,4.0,7.0,81,0.00,,FEW200,0.00,VWS V14.00,2013-06-08 13:31:00,
2013-06-08 09:36:00,60.8,54.9,29.95,South,190,0.0,7.0,81,0.00,,FEW200,0.00,VWS V14.00,2013-06-08 13:36:00,
2013-06-08 09:41:00,61.3,55.4,29.95,South,183,5.0,7.0,81,0.00,,FEW200,0.00,VWS V14.00,2013-06-08 13:41:00,
2013-06-08 09:46:00,61.7,55.8,29.95,SSE,157,0.0,7.0,81,0.00,,FEW200,0.00,VWS V14.00,2013-06-08 13:46:00,
2013-06-08 09:51:00,62.1,55.2,29.94,SE,144,1.0,7.0,78,0.00,,FEW200,0.00,VWS V14.00,2013-06-08 13:51:00,
2013-06-08 09:56:00,62.5,55.6,29.94,ENE,67,0.0,7.0,78,0.00,,FEW200,0.00,VWS V14.00,2013-06-08 13:56:00,
2013-06-08 10:00:00,59.0,54.8,29.95,SSW,203,5.0,8.0,86,0.00,,OVC120,0.00,VWS V14.00,2013-06-08 14:00:00,
2013-06-08 10:01:00,62.7,55.4,29.94,SE,138,0.0,6.0,77,0.00,,FEW200,0.00,VWS V14.00,2013-06-08 14:01:00,
2013-06-08 10:06:00,62.8,55.1,29.94,South,185,2.0,6.0,76,0.00,,FEW200,0.00,VWS V14.00,2013-06-08 14:06:00,
2013-06-08 10:11:00,62.4,55.1,29.94,South,169,0.0,8.0,77,0.00,,FEW200,0.00,VWS V14.00,2013-06-08 14:11:00,
2013-06-08 10:16:00,62.6,55.7,29.94,SSE,159,5.0,8.0,78,0.00,,FEW200,0.00,VWS V14.00,2013-06-08 14:16:00,
2013-06-08 10:21:00,62.8,55.5,29.94,SSE,155,0.0,8.0,77,0.00,,FEW200,0.00,VWS V14.00,2013-06-08 14:21:00,
2013-06-08 10:27:00,63.2,55.9,29.94,ESE,114,1.0,8.0,77,0.00,,FEW200,0.00,VWS V14.00,2013-06-08 14:27:00,
2013-06-08 10:30:00,60.7,55.2,29.95,SSW,198,4.0,8.0,82,0.00,,OVC120,0.00,VWS V14.00,2013-06-08 14:30:00,
2013-06-08 10:32:00,63.6,55.9,29.94,SE,146,0.0,3.0,76,0.00,,FEW200,0.00,VWS V14.00,2013-06-08 14:32:00,
2013-06-08 10:37:00,64.3,55.8,29.95,East,93,2.0,6.0,74,0.00,,FEW200,0.00,VWS V14.00,2013-06-08 14:37:00,
2013-06-08 10:42:00,64.7,57.0,29.95,SE,140,3.0,6.0,76,0.00,,FEW200,0.00,VWS V14.00,2013-06-08 14:42:00,
2013-06-08 10:47:00,64.7,56.2,29.95,SSE,150,0.0,6.0,74,0.00,,FEW200,0.00,VWS V14.00,2013-06-08 14:47:00,
2013-06-08 10:52:00,64.5,55.3,29.94,SSW,192,2.0,7.0,72,0.00,,FEW200,0.00,VWS V14.00,2013-06-08 14:52:00,
2013-06-08 10:57:00,64.6,56.9,29.94,SSE,161,4.0,7.0,76,0.00,,FEW200,0.00,VWS V14.00,2013-06-08 14:57:00,
2013-06-08 11:00:00,62.7,55.8,29.94,SE,145,5.0,7.0,78,0.00,,OVC120,0.00,VWS V14.00,2013-06-08 15:00:00,
2013-06-08 11:02:00,64.4,55.6,29.95,South,186,4.0,5.0,73,0.00,,BKN190,0.00,VWS V14.00,2013-06-08 15:02:00,
2013-06-08 11:07:00,64.3,55.8,29.95,South,186,0.0,5.0,74,0.00,,BKN190,0.00,VWS V14.00,2013-06-08 15:07:00,
2013-06-08 11:12:00,64.7,56.2,29.95,South,190,0.0,6.0,74,0.00,,BKN190,0.00,VWS V14.00,2013-06-08 15:12:00,
2013-06-08 11:18:00,65.0,56.2,29.95,East,101,5.0,6.0,73,0.00,,BKN190,0.00,VWS V14.00,2013-06-08 15:18:00,
2013-06-08 11:23:00,64.9,56.0,29.95,South,170,0.0,6.0,73,0.00,,BKN190,0.00,VWS V14.00,2013-06-08 15:23:00,
2013-06-08 11:28:00,64.8,56.0,29.96,South,169,4.0,6.0,73,0.00,,BKN190,0.00,VWS V14.00,2013-06-08 15:28:00,
2013-06-08 11:30:00,63.4,55.7,29.94,ESE,115,0.0,8.0,76,0.00,,OVC120,0.00,VWS V14.00,2013-06-08 15:30:00,
2013-06-08 11:33:00,64.7,55.5,29.96,SSE,164,3.0,4.0,72,0.00,,BKN190,0.00,VWS V14.00,2013-06-08 15:33:00,
2013-06-08 11:38:00,64.8,55.6,29.96,East,98,0.0,6.0,72,0.00,,BKN190,0.00,VWS V14.00,2013-06-08 15:38:00,
2013-06-08 11:43:00,65.0,56.2,29.96,East,84,0.0,6.0,73,0.00,,BKN190,0.00,VWS V14.00,2013-06-08 15:43:00,
2013-06-08 11:48:00,65.2,55.6,29.96,East,84,0.0,6.0,71,0.00,,BKN190,0.00,VWS V14.00,2013-06-08 15:48:00,
2013-06-08 11:53:00,65.4,55.8,29.96,East,92,1.0,6.0,71,0.00,,BKN190,0.00,VWS V14.00,2013-06-08 15:53:00,
2013-06-08 11:58:00,65.5,56.2,29.96,SSE,157,2.0,6.0,72,0.00,,BKN190,0.00,VWS V14.00,2013-06-08 15:58:00,
2013-06-08 12:00:00,64.5,56.0,29.95,SW,220,0.0,7.0,74,0.00,,OVC120,0.00,VWS V14.00,2013-06-08 16:00:00,
2013-06-08 12:03:00,65.7,56.0,29.96,SSE,155,1.0,1.0,71,0.00,,BKN190,0.00,VWS V14.00,2013-06-08 16:03:00,
2013-06-08 12:08:00,65.7,55.7,29.96,South,171,0.0,7.0,70,0.00,,BKN190,0.00,VWS V14.00,2013-06-08 16:08:00,
2013-06-08 12:13:00,66.0,56.3,29.95,South,179,0.0,7.0,71,0.00,,BKN190,0.00,VWS V14.00,2013-06-08 16:13:00,
2013-06-08 12:18:00,66.3,56.6,29.95,SE,129,2.0,7.0,71,0.00,,BKN190,0.00,VWS V14.00,2013-06-08 16:18:00,
2013-06-08 12:23:00,66.8,56.7,29.95,SE,130,0.0,7.0,70,0.00,,BKN190,0.00,VWS V14.00,2013-06-08 16:23:00,
2013-06-08 12:28:00,67.5,57.0,29.95,South,185,4.0,8.0,69,0.00,,BKN190,0.00,VWS V14.00,2013-06-08 16:28:00,
2013-06-08 12:30:00,64.8,55.6,29.96,South,178,0.0,6.0,72,0.00,,OVC120,0.00,VWS V14.00,2013-06-08 16:30:00,
2013-06-08 12:33:00,67.4,56.9,29.95,South,177,3.0,6.0,69,0.00,,BKN190,0.00,VWS V14.00,2013-06-08 16:33:00,
2013-06-08 12:38:00,67.5,57.0,29.95,SSE,162,0.0,6.0,69,0.00,,BKN190,0.00,VWS V14.00,2013-06-08 16:38:00,
2013-06-08 12:44:00,67.9,57.0,29.95,SSE,162,0.0,6.0,68,0.00,,BKN190,0.00,VWS V14.00,2013-06-08 16:44:00,
2013-06-08 12:49:00,68.3,57.3,29.95,SSW,207,5.0,6.0,68,0.00,,BKN190,0.00,VWS V14.00,2013-06-08 16:49:00,
2013-06-08 12:54:00,68.3,57.8,29.95,SSW,211,0.0,7.0,69,0.00,,BKN190,0.00,VWS V14.00,2013-06-08 16:54:00,
2013-06-08 12:59:00,68.6,56.0,29.94,SSE,162,3.0,7.0,64,0.00,,BKN190,0.00,VWS V14.00,2013-06-08 16:59:00,
2013-06-08 13:00:00,65.6,56.0,29.96,SSE,153,0.0,6.0,71,0.00,,OVC120,0.00,VWS V14.00,2013-06-08 17:00:00,
2013-06-08 13:04:00,68.2,55.1,29.94,SSW,197,3.0,6.0,63,0.00,,BKN160,0.00,VWS V14.00,2013-06-08 17:04:00,
2013-06-08 13:09:00,68.1,57.2,29.95,SSW,211,5.0,6.0,68,0.00,,BKN160,0.00,VWS V14.00,2013-06-08 17:09:00,
2013-06-08 13:14:00,68.5,56.7,29.95,SSW,211,0.0,6.0,66,0.00,,BKN160,0.00,VWS V14.00,2013-06-08 17:14:00,
2013-06-08 13:19:00,69.0,55.5,29.95,East,80,0.0,6.0,62,0.00,,BKN160,0.00,VWS V14.00,2013-06-08 17:19:00,
2013-06-08 13:24:00,69.0,55.0,29.95,ENE,63,0.0,6.0,61,0.00,,BKN160,0.00,VWS V14.00,2013-06-08 17:24:00,
2013-06-08 13:29:00,69.0,55.5,29.94,ENE,57,1.0,6.0,62,0.00,,BKN160,0.00,VWS V14.00,2013-06-08 17:29:00,
2013-06-08 13:30:00,67.6,57.1,29.95,South,188,5.0,8.0,69,0.00,,OVC120,0.00,VWS V14.00,2013-06-08 17:30:00,
2013-06-08 13:34:00,68.9,54.9,29.94,ENE,57,0.0,2.0,61,0.00,,BKN160,0.00,VWS V14.00,2013-06-08 17:34:00,
2013-06-08 13:39:00,68.9,54.9,29.94,ENE,74,0.0,4.0,61,0.00,,BKN160,0.00,VWS V14.00,2013-06-08 17:39:00,
2013-06-08 13:44:00,68.6,55.5,29.95,ENE,74,0.0,4.0,63,0.00,,BKN160,0.00,VWS V14.00,2013-06-08 17:44:00,
2013-06-08 13:49:00,68.7,54.7,29.95,SSE,154,0.0,4.0,61,0.00,,BKN160,0.00,VWS V14.00,2013-06-08 17:49:00,
2013-06-08 13:54:00,68.7,55.2,29.95,SSE,159,0.0,4.0,62,0.00,,BKN160,0.00,VWS V14.00,2013-06-08 17:54:00,
2013-06-08 14:00:00,68.8,55.7,29.94,SSE,150,2.0,4.0,63,0.00,,BKN160,0.00,VWS V14.00,2013-06-08 18:00:00,
2013-06-08 14:05:00,68.9,54.9,29.94,SSE,148,0.0,3.0,61,0.00,,OVC160,0.00,VWS V14.00,2013-06-08 18:05:00,
2013-06-08 14:10:00,69.3,55.3,29.94,SSW,202,0.0,5.0,61,0.00,,OVC160,0.00,VWS V14.00,2013-06-08 18:10:00,
2013-06-08 14:15:00,69.6,56.9,29.94,South,188,0.0,5.0,64,0.00,,OVC160,0.00,VWS V14.00,2013-06-08 18:15:00,
2013-06-08 14:20:00,70.1,56.5,29.94,South,182,0.0,5.0,62,0.00,,OVC160,0.00,VWS V14.00,2013-06-08 18:20:00,
2013-06-08 14:25:00,70.4,56.3,29.94,SSW,195,0.0,5.0,61,0.00,,OVC160,0.00,VWS V14.00,2013-06-08 18:25:00,
2013-06-08 14:30:00,70.8,56.7,29.94,SSE,161,1.0,1.0,61,0.00,,OVC160,0.00,VWS V14.00,2013-06-08 18:30:00,
2013-06-08 14:35:00,70.8,55.3,29.94,NE,43,2.0,5.0,58,0.00,,OVC160,0.00,VWS V14.00,2013-06-08 18:35:00,
2013-06-08 14:40:00,70.8,54.8,29.94,SE,132,1.0,5.0,57,0.00,,OVC160,0.00,VWS V14.00,2013-06-08 18:40:00,
2013-06-08 14:45:00,70.7,55.7,29.94,South,179,1.0,5.0,59,0.00,,OVC160,0.00,VWS V14.00,2013-06-08 18:45:00,
2013-06-08 14:50:00,70.8,56.2,29.94,SSW,202,3.0,5.0,60,0.00,,OVC160,0.00,VWS V14.00,2013-06-08 18:50:00,
2013-06-08 14:56:00,71.2,55.7,29.94,SSW,204,0.0,5.0,58,0.00,,OVC160,0.00,VWS V14.00,2013-06-08 18:56:00,
2013-06-08 15:00:00,68.8,55.3,29.94,SSE,150,1.0,4.0,62,0.00,,OVC120,0.00,VWS V14.00,2013-06-08 19:00:00,
2013-06-08 15:01:00,71.4,54.9,29.94,NE,36,0.0,2.0,56,0.00,,BKN250,0.00,VWS V14.00,2013-06-08 19:01:00,
2013-06-08 15:06:00,71.4,54.4,29.93,ENE,65,0.0,5.0,55,0.00,,BKN250,0.00,VWS V14.00,2013-06-08 19:06:00,
2013-06-08 15:11:00,71.3,55.3,29.93,East,81,0.0,5.0,57,0.00,,BKN250,0.00,VWS V14.00,2013-06-08 19:11:00,
2013-06-08 15:16:00,71.7,57.5,29.93,East,80,0.0,5.0,61,0.00,,BKN250,0.00,VWS V14.00,2013-06-08 19:16:00,
2013-06-08 15:21:00,72.0,54.5,29.93,East,81,0.0,5.0,54,0.00,,BKN250,0.00,VWS V14.00,2013-06-08 19:21:00,
2013-06-08 15:26:00,72.2,56.1,29.94,East,80,0.0,5.0,57,0.00,,BKN250,0.00,VWS V14.00,2013-06-08 19:26:00,
2013-06-08 15:30:00,70.8,56.7,29.94,SSE,163,0.0,5.0,61,0.00,,OVC120,0.00,VWS V14.00,2013-06-08 19:30:00,
2013-06-08 15:31:00,72.1,55.1,29.93,ENE,59,3.0,3.0,55,0.00,,BKN250,0.00,VWS V14.00,2013-06-08 19:31:00,
2013-06-08 15:36:00,71.7,55.7,29.93,ENE,59,1.0,4.0,57,0.00,,BKN250,0.00,VWS V14.00,2013-06-08 19:36:00,
2013-06-08 15:41:00,71.6,56.1,29.93,ENE,59,0.0,4.0,58,0.00,,BKN250,0.00,VWS V14.00,2013-06-08 19:41:00,
2013-06-08 15:46:00,71.9,55.4,29.93,ENE,59,0.0,4.0,56,0.00,,BKN250,0.00,VWS V14.00,2013-06-08 19:46:00,
2013-06-08 15:51:00,72.0,55.5,29.93,ENE,59,0.0,4.0,56,0.00,,BKN250,0.00,VWS V14.00,2013-06-08 19:51:00,
2013-06-08 15:56:00,72.0,55.5,29.93,SW,223,0.0,4.0,56,0.00,,BKN250,0.00,VWS V14.00,2013-06-08 19:56:00,
2013-06-08 16:00:00,71.4,55.4,29.94,NNE,23,0.0,5.0,57,0.00,,OVC120,0.00,VWS V14.00,2013-06-08 20:00:00,
2013-06-08 16:01:00,71.7,53.7,29.93,SW,222,0.0,1.0,53,0.00,,BKN200,0.00,VWS V14.00,2013-06-08 20:01:00,
2013-06-08 16:07:00,71.5,55.5,29.93,SW,222,0.0,1.0,57,0.00,,BKN200,0.00,VWS V14.00,2013-06-08 20:07:00,
2013-06-08 16:12:00,71.5,55.5,29.93,SW,225,0.0,2.0,57,0.00,,BKN200,0.00,VWS V14.00,2013-06-08 20:12:00,
2013-06-08 16:17:00,71.5,56.0,29.93,SW,225,0.0,2.0,58,0.00,,BKN200,0.00,VWS V14.00,2013-06-08 20:17:00,
2013-06-08 16:22:00,71.7,56.6,29.93,SW,225,0.0,2.0,59,0.00,,BKN200,0.00,VWS V14.00,2013-06-08 20:22:00,
2013-06-08 16:27:00,71.7,55.7,29.93,SW,225,0.0,2.0,57,0.00,,BKN200,0.00,VWS V14.00,2013-06-08 20:27:00,
2013-06-08 16:30:00,72.2,55.7,29.93,ENE,59,0.0,5.0,56,0.00,,OVC120,0.00,VWS V14.00,2013-06-08 20:30:00,
2013-06-08 16:32:00,71.8,55.3,29.93,SW,225,0.0,0.0,56,0.00,,BKN200,0.00,VWS V14.00,2013-06-08 20:32:00,
2013-06-08 16:37:00,72.0,55.5,29.93,SW,225,0.0,0.0,56,0.00,,BKN200,0.00,VWS V14.00,2013-06-08 20:37:00,
2013-06-08 16:42:00,72.1,55.1,29.93,SW,225,0.0,1.0,55,0.00,,BKN200,0.00,VWS V14.00,2013-06-08 20:42:00,
2013-06-08 16:47:00,72.3,54.7,29.94,SW,218,1.0,2.0,54,0.00,,BKN200,0.00,VWS V14.00,2013-06-08 20:47:00,
2013-06-08 16:52:00,71.8,54.3,29.94,SSW,202,0.0,2.0,54,0.00,,BKN200,0.00,VWS V14.00,2013-06-08 20:52:00,
2013-06-08 16:57:00,71.3,55.8,29.94,SSW,202,0.0,2.0,58,0.00,,BKN200,0.00,VWS V14.00,2013-06-08 20:57:00,
2013-06-08 17:00:00,71.9,54.4,29.93,SW,222,0.0,4.0,54,0.00,,OVC120,0.00,VWS V14.00,2013-06-08 21:00:00,
2013-06-08 17:02:00,71.3,55.8,29.94,SSW,202,0.0,0.0,58,0.00,,BKN200,0.00,VWS V14.00,2013-06-08 21:02:00,
2013-06-08 17:07:00,71.3,55.3,29.94,NNE,30,0.0,0.0,57,0.00,,BKN200,0.00,VWS V14.00,2013-06-08 21:07:00,
2013-06-08 17:12:00,71.3,54.8,29.94,NNE,30,0.0,1.0,56,0.00,,BKN200,0.00,VWS V14.00,2013-06-08 21:12:00,
2013-06-08 17:17:00,71.6,55.6,29.94,NNE,32,0.0,1.0,57,0.00,,BKN200,0.00,VWS V14.00,2013-06-08 21:17:00,
2013-06-08 17:22:00,72.0,56.0,29.94,NNE,32,0.0,3.0,57,0.00,,BKN200,0.00,VWS V14.00,2013-06-08 21:22:00,
2013-06-08 17:27:00,72.1,57.0,29.94,NE,37,0.0,3.0,59,0.00,,BKN200,0.00,VWS V14.00,2013-06-08 21:27:00,
2013-06-08 17:30:00,71.8,57.2,29.93,SW,225,0.0,2.0,60,0.00,,OVC120,0.00,VWS V14.00,2013-06-08 21:30:00,
2013-06-08 17:33:00,72.6,56.0,29.94,NE,37,1.0,3.0,56,0.00,,BKN200,0.00,VWS V14.00,2013-06-08 21:33:00,
2013-06-08 17:38:00,72.8,56.2,29.94,NE,34,3.0,4.0,56,0.00,,BKN200,0.00,VWS V14.00,2013-06-08 21:38:00,
2013-06-08 17:43:00,72.8,55.7,29.94,NE,34,0.0,4.0,55,0.00,,BKN200,0.00,VWS V14.00,2013-06-08 21:43:00,
2013-06-08 17:48:00,72.6,54.5,29.95,NE,36,1.0,5.0,53,0.00,,BKN200,0.00,VWS V14.00,2013-06-08 21:48:00,
2013-06-08 17:53:00,72.7,55.6,29.95,NE,55,0.0,5.0,55,0.00,,BKN200,0.00,VWS V14.00,2013-06-08 21:53:00,
2013-06-08 17:58:00,72.8,54.2,29.95,NNE,18,0.0,6.0,52,0.00,,BKN200,0.00,VWS V14.00,2013-06-08 21:58:00,
2013-06-08 18:00:00,71.3,56.7,29.94,SSW,202,0.0,2.0,60,0.00,,OVC120,0.00,VWS V14.00,2013-06-08 22:00:00,
2013-06-08 18:03:00,72.5,54.4,29.95,NNE,17,0.0,5.0,53,0.00,,BKN180,0.00,VWS V14.00,2013-06-08 22:03:00,
2013-06-08 18:08:00,72.6,55.5,29.95,NNE,17,0.0,5.0,55,0.00,,BKN180,0.00,VWS V14.00,2013-06-08 22:08:00,
2013-06-08 18:13:00,72.2,55.2,29.95,NNE,17,0.0,5.0,55,0.00,,BKN180,0.00,VWS V14.00,2013-06-08 22:13:00,
2013-06-08 18:18:00,71.6,55.1,29.95,NNE,21,0.0,5.0,56,0.00,,BKN180,0.00,VWS V14.00,2013-06-08 22:18:00,
2013-06-08 18:23:00,71.3,54.3,29.95,NNE,22,0.0,5.0,55,0.00,,BKN180,0.00,VWS V14.00,2013-06-08 22:23:00,
2013-06-08 18:28:00,71.3,56.2,29.95,NNE,21,0.0,5.0,59,0.00,,BKN180,0.00,VWS V14.00,2013-06-08 22:28:00,
2013-06-08 18:30:00,72.3,57.2,29.94,NE,37,0.0,3.0,59,0.00,,OVC120,0.00,VWS V14.00,2013-06-08 22:30:00,
2013-06-08 18:33:00,71.3,55.8,29.95,NNE,22,0.0,0.0,58,0.00,,BKN180,0.00,VWS V14.00,2013-06-08 22:33:00,
2013-06-08 18:38:00,71.4,57.7,29.95,NNE,21,0.0,0.0,62,0.00,,BKN180,0.00,VWS V14.00,2013-06-08 22:38:00,
2013-06-08 18:43:00,71.7,55.2,29.95,NNE,21,0.0,0.0,56,0.00,,BKN180,0.00,VWS V14.00,2013-06-08 22:43:00,
2013-06-08 18:48:00,71.9,56.3,29.96,NNE,22,0.0,0.0,58,0.00,,BKN180,0.00,VWS V14.00,2013-06-08 22:48:00,
2013-06-08 18:53:00,71.9,56.8,29.95,NNE,22,0.0,0.0,59,0.00,,BKN180,0.00,VWS V14.00,2013-06-08 22:53:00,
2013-06-08 18:58:00,71.5,55.5,29.96,NNE,22,0.0,0.0,57,0.00,,BKN180,0.00,VWS V14.00,2013-06-08 22:58:00,
2013-06-08 19:00:00,72.7,54.6,29.95,NNE,17,0.0,6.0,53,0.00,,OVC120,0.00,VWS V14.00,2013-06-08 23:00:00,
2013-06-08 19:04:00,71.3,56.2,29.96,NNE,22,0.0,0.0,59,0.00,,BKN250,0.00,VWS V14.00,2013-06-08 23:04:00,
2013-06-08 19:09:00,71.1,56.1,29.96,NNE,22,0.0,0.0,59,0.00,,BKN250,0.00,VWS V14.00,2013-06-08 23:09:00,
2013-06-08 19:14:00,71.3,56.2,29.96,NNE,21,0.0,0.0,59,0.00,,BKN250,0.00,VWS V14.00,2013-06-08 23:14:00,
2013-06-08 19:19:00,71.5,56.9,29.96,NNE,22,0.0,0.0,60,0.00,,BKN250,0.00,VWS V14.00,2013-06-08 23:19:00,
2013-06-08 19:24:00,71.4,56.3,29.96,NNE,32,0.0,2.0,59,0.00,,BKN250,0.00,VWS V14.00,2013-06-08 23:24:00,
2013-06-08 19:29:00,71.3,56.2,29.96,NNE,32,0.0,2.0,59,0.00,,BKN250,0.00,VWS V14.00,2013-06-08 23:29:00,
2013-06-08 19:30:00,71.3,55.3,29.95,NNE,22,0.0,5.0,57,0.00,,OVC120,0.00,VWS V14.00,2013-06-08 23:30:00,
2013-06-08 19:34:00,71.0,56.0,29.97,NNE,32,0.0,0.0,59,0.00,,BKN250,0.00,VWS V14.00,2013-06-08 23:34:00,
2013-06-08 19:39:00,70.9,56.8,29.97,NNE,32,0.0,0.0,61,0.00,,BKN250,0.00,VWS V14.00,2013-06-08 23:39:00,
2013-06-08 19:44:00,70.6,55.6,29.96,NNE,32,0.0,0.0,59,0.00,,BKN250,0.00,VWS V14.00,2013-06-08 23:44:00,
2013-06-08 19:49:00,70.4,56.3,29.96,NNE,32,0.0,0.0,61,0.00,,BKN250,0.00,VWS V14.00,2013-06-08 23:49:00,
2013-06-08 19:54:00,70.1,55.6,29.96,NNE,32,0.0,0.0,60,0.00,,BKN250,0.00,VWS V14.00,2013-06-08 23:54:00,
2013-06-08 19:59:00,69.9,55.8,29.97,NNE,32,0.0,0.0,61,0.00,,BKN250,0.00,VWS V14.00,2013-06-08 23:59:00,
2013-06-08 20:00:00,71.4,54.9,29.96,NNE,21,0.0,2.0,56,0.00,,OVC120,0.00,VWS V14.00,2013-06-09 00:00:00,
2013-06-08 20:04:00,69.7,56.1,29.97,NNE,32,0.0,0.0,62,0.00,,BKN240,0.00,VWS V14.00,2013-06-09 00:04:00,
2013-06-08 20:09:00,69.5,55.9,29.97,NNE,32,0.0,0.0,62,0.00,,BKN240,0.00,VWS V14.00,2013-06-09 00:09:00,
2013-06-08 20:14:00,69.2,56.1,29.97,NNE,32,0.0,0.0,63,0.00,,BKN240,0.00,VWS V14.00,2013-06-09 00:14:00,
2013-06-08 20:19:00,68.9,57.1,29.97,NNE,32,0.0,0.0,66,0.00,,BKN240,0.00,VWS V14.00,2013-06-09 00:19:00,
2013-06-08 20:24:00,68.5,56.3,29.97,NNE,32,0.0,0.0,65,0.00,,BKN240,0.00,VWS V14.00,2013-06-09 00:24:00,
2013-06-08 20:29:00,68.0,56.2,29.97,NNE,32,0.0,0.0,66,0.00,,BKN240,0.00,VWS V14.00,2013-06-09 00:29:00,
2013-06-08 20:30:00,71.2,55.7,29.96,NNE,32,0.0,2.0,58,0.00,,OVC120,0.00,VWS V14.00,2013-06-09 00:30:00,
2013-06-08 20:34:00,67.5,56.6,29.97,NNE,32,0.0,0.0,68,0.00,,BKN210,0.00,VWS V14.00,2013-06-09 00:34:00,
2013-06-08 20:39:00,67.0,56.5,29.97,NNE,32,0.0,0.0,69,0.00,,BKN210,0.00,VWS V14.00,2013-06-09 00:39:00,
2013-06-08 20:44:00,66.6,56.5,29.97,NNE,32,0.0,0.0,70,0.00,,BKN210,0.00,VWS V14.00,2013-06-09 00:44:00,
2013-06-08 20:49:00,66.1,56.4,29.97,NNE,32,0.0,0.0,71,0.00,,BKN210,0.00,VWS V14.00,2013-06-09 00:49:00,
2013-06-08 20:55:00,65.7,56.4,29.97,NNE,32,0.0,0.0,72,0.00,,BKN210,0.00,VWS V14.00,2013-06-09 00:55:00,
2013-06-08 21:00:00,65.2,56.3,29.97,NNE,32,0.0,0.0,73,0.00,,BKN210,0.00,VWS V14.00,2013-06-09 01:00:00,
2013-06-08 21:05:00,64.8,56.3,29.98,NNE,32,0.0,0.0,74,0.00,,BKN210,0.00,VWS V14.00,2013-06-09 01:05:00,
2013-06-08 21:10:00,64.3,57.0,29.98,NNE,32,0.0,0.0,77,0.00,,BKN210,0.00,VWS V14.00,2013-06-09 01:10:00,
2013-06-08 21:15:00,63.7,56.4,29.97,NNE,32,0.0,0.0,77,0.00,,BKN210,0.00,VWS V14.00,2013-06-09 01:15:00,
2013-06-08 21:20:00,63.3,57.0,29.97,NNE,32,0.0,0.0,80,0.00,,BKN210,0.00,VWS V14.00,2013-06-09 01:20:00,
2013-06-08 21:25:00,63.0,57.4,29.98,NNE,32,0.0,0.0,82,0.00,,BKN210,0.00,VWS V14.00,2013-06-09 01:25:00,
2013-06-08 21:30:00,62.6,57.0,29.97,NNE,32,0.0,0.0,82,0.00,,BKN210,0.00,VWS V14.00,2013-06-09 01:30:00,
2013-06-08 21:35:00,62.2,56.6,29.98,NNE,32,0.0,0.0,82,0.00,,BKN210,0.00,VWS V14.00,2013-06-09 01:35:00,
2013-06-08 21:40:00,61.8,56.6,29.97,NNE,32,0.0,0.0,83,0.00,,BKN210,0.00,VWS V14.00,2013-06-09 01:40:00,
2013-06-08 21:45:00,61.3,56.4,29.97,NNE,32,0.0,0.0,84,0.00,,BKN210,0.00,VWS V14.00,2013-06-09 01:45:00,
2013-06-08 21:50:00,61.0,56.5,29.98,NNE,32,0.0,0.0,85,0.00,,BKN210,0.00,VWS V14.00,2013-06-09 01:50:00,
2013-06-08 21:55:00,60.6,56.4,29.98,NNE,32,0.0,0.0,86,0.00,,BKN210,0.00,VWS V14.00,2013-06-09 01:55:00,
2013-06-08 22:00:00,65.2,56.3,29.97,NNE,32,0.0,0.0,73,0.00,,OVC120,0.00,VWS V14.00,2013-06-09 02:00:00,
2013-06-08 22:01:00,60.2,56.0,29.98,NNE,32,0.0,0.0,86,0.00,,BKN250,0.00,VWS V14.00,2013-06-09 02:01:00,
2013-06-08 22:06:00,59.8,55.9,29.98,NNE,32,0.0,0.0,87,0.00,,BKN250,0.00,VWS V14.00,2013-06-09 02:06:00,
2013-06-08 22:11:00,59.4,55.8,29.99,NNE,32,0.0,0.0,88,0.00,,BKN250,0.00,VWS V14.00,2013-06-09 02:11:00,
2013-06-08 22:16:00,59.0,55.5,29.99,NNE,32,0.0,0.0,88,0.00,,BKN250,0.00,VWS V14.00,2013-06-09 02:16:00,
2013-06-08 22:21:00,59.0,55.8,29.99,NNE,32,0.0,0.0,89,0.00,,BKN250,0.00,VWS V14.00,2013-06-09 02:21:00,
2013-06-08 22:26:00,58.8,55.9,29.99,NNE,32,0.0,0.0,90,0.00,,BKN250,0.00,VWS V14.00,2013-06-09 02:26:00,
2013-06-08 22:30:00,62.6,57.0,29.97,NNE,32,0.0,0.0,82,0.00,,OVC120,0.00,VWS V14.00,2013-06-09 02:30:00,
2013-06-08 22:31:00,58.7,56.1,29.99,NNE,32,0.0,0.0,91,0.00,,BKN250,0.00,VWS V14.00,2013-06-09 02:31:00,
2013-06-08 22:36:00,58.5,55.9,30.00,NNE,32,0.0,0.0,91,0.00,,BKN250,0.00,VWS V14.00,2013-06-09 02:36:00,
2013-06-08 22:41:00,58.0,55.4,30.00,NNE,32,0.0,0.0,91,0.00,,BKN250,0.00,VWS V14.00,2013-06-09 02:41:00,
2013-06-08 22:47:00,57.8,55.2,30.00,NNE,32,0.0,0.0,91,0.00,,BKN250,0.00,VWS V14.00,2013-06-09 02:47:00,
2013-06-08 22:52:00,57.6,55.3,30.00,NNE,32,0.0,0.0,92,0.00,,BKN250,0.00,VWS V14.00,2013-06-09 02:52:00,
2013-06-08 22:57:00,57.4,55.1,30.00,NNE,32,0.0,0.0,92,0.00,,BKN250,0.00,VWS V14.00,2013-06-09 02:57:00,
2013-06-08 23:00:00,60.2,56.0,29.98,NNE,32,0.0,0.0,86,0.00,,OVC120,0.00,VWS V14.00,2013-06-09 03:00:00,
2013-06-08 23:02:00,57.1,55.1,30.00,NNE,32,0.0,0.0,93,0.00,,BKN250,0.00,VWS V14.00,2013-06-09 03:02:00,
2013-06-08 23:07:00,56.8,54.8,30.00,NNE,32,0.0,0.0,93,0.00,,BKN250,0.00,VWS V14.00,2013-06-09 03:07:00,
2013-06-08 23:12:00,56.7,54.7,30.00,NNE,32,0.0,0.0,93,0.00,,BKN250,0.00,VWS V14.00,2013-06-09 03:12:00,
2013-06-08 23:17:00,56.7,55.0,30.00,NNE,32,0.0,1.0,94,0.00,,BKN250,0.00,VWS V14.00,2013-06-09 03:17:00,
2013-06-08 23:22:00,56.8,55.1,30.00,NNE,28,4.0,6.0,94,0.00,,BKN250,0.00,VWS V14.00,2013-06-09 03:22:00,
2013-06-08 23:27:00,57.3,55.9,30.00,NNE,28,0.0,6.0,95,0.00,,BKN250,0.00,VWS V14.00,2013-06-09 03:27:00,
2013-06-08 23:30:00,58.7,55.8,29.99,NNE,32,0.0,0.0,90,0.00,,OVC120,0.00,VWS V14.00,2013-06-09 03:30:00,
2013-06-08 23:32:00,57.8,56.1,30.01,NNE,28,0.0,3.0,94,0.00,,BKN250,0.00,VWS V14.00,2013-06-09 03:32:00,
2013-06-08 23:37:00,58.2,56.2,30.01,NNE,28,0.0,3.0,93,0.00,,BKN250,0.00,VWS V14.00,2013-06-09 03:37:00,
2013-06-08 23:43:00,58.6,56.3,30.00,NNE,28,0.0,3.0,92,0.00,,BKN250,0.00,VWS V14.00,2013-06-09 03:43:00,
2013-06-08 23:48:00,58.7,55.8,30.00,NNE,28,0.0,3.0,90,0.00,,BKN250,0.00,VWS V14.00,2013-06-09 03:48:00,
2013-06-08 23:53:00,59.0,55.8,30.01,NNE,28,1.0,4.0,89,0.00,,BKN250,0.00,VWS V14.00,2013-06-09 03:53:00,
2013-06-08 23:58:00,59.0,55.5,30.00,NE,44,2.0,6.0,88,0.00,,BKN250,0.00,VWS V14.00,2013-06-09 03:58:00,